Ardmore, OK

7:50 AM CST on November 22, 2017 (GMT -0600)
Ardmore Municipal

Weather History for KADM - January, 2012

Change the Weather History Date:

Tuesday, January 17, 2012

  Actual Average Record
Temperature  
Mean Temperature 46 °F -  
Max Temperature 60 °F 51 °F 73 °F (2000)
Min Temperature 30 °F 32 °F 15 °F (1997)
Degree Days  
Heating Degree Days 19    
Moisture  
Dew Point 33 °F    
Average Humidity 67    
Maximum Humidity 100    
Minimum Humidity 36    
Precipitation  
Precipitation 0.00 in - - ()
Sea Level Pressure  
Sea Level Pressure 30.13 in    
Wind  
Wind Speed 9 mph (NNW)    
Max Wind Speed 26 mph    
Max Gust Speed 37 mph    
Visibility 10 miles    
Events      
Averages and records for this station are not official NWS values.
T = Trace of Precipitation, MM = Missing Value Source: NWS Daily Summary

Daily Weather History Graph

Daily Weather History Graph

Search for Another Location

Airport or City:

Trip Planner

Search our weather history database for the weather conditions in past years. The results will help you decide how hot, cold, wet, or windy it might be!

Date:

Astronomy

Jan. 17, 2012 Rise Set
Actual Time 7:33 AM CST 5:42 PM CST
Civil Twilight 7:06 AM CST 6:10 PM CST
Nautical Twilight 6:35 AM CST 6:40 PM CST
Astronomical Twilight 6:05 AM CST 7:10 PM CST
Moon 1:56 AM CST (1/17) 12:36 PM CST (1/17)
Length of Visible Light 11h 03m
Length of Day
10h 09m
Waning Crescent, 35% of the Moon is Illuminated
Jan 17
Waning Crescent
Jan 23
New
Jan 30
First Quarter
Feb 7
Full
Feb 14
Last Quarter

Hourly Weather History & Observations

Time (CST) Temp. Windchill Dew Point Humidity Pressure Visibility Wind Dir Wind Speed Gust Speed Precip Events Conditions
12:15 AM 60.8 °F - 55.4 °F 82% 29.84 in 10.0 mi SSW 6.9 mph - N/A   Clear
12:35 AM 60.8 °F - 55.4 °F 82% 29.84 in 10.0 mi SSW 5.8 mph - N/A   Clear
12:55 AM 60.8 °F - 55.4 °F 82% 29.85 in 10.0 mi SW 4.6 mph - N/A   Clear
1:15 AM 60.8 °F - 55.4 °F 82% 29.85 in 10.0 mi SW 5.8 mph - N/A   Clear
1:35 AM 59.0 °F - 55.4 °F 88% 29.85 in 10.0 mi SW 6.9 mph - N/A   Clear
1:55 AM 59.0 °F - 55.4 °F 88% 29.86 in 10.0 mi WSW 5.8 mph - N/A   Clear
2:15 AM 57.2 °F - 53.6 °F 88% 29.87 in 10.0 mi SW 5.8 mph - N/A   Clear
2:35 AM 55.4 °F - 53.6 °F 94% 29.88 in 10.0 mi SW 4.6 mph - N/A   Clear
2:55 AM 55.4 °F - 53.6 °F 94% 29.89 in 10.0 mi Calm Calm - N/A   Clear
3:15 AM 53.6 °F - 51.8 °F 94% 29.89 in 10.0 mi Calm Calm - N/A   Clear
3:35 AM 51.8 °F - 51.8 °F 100% 29.89 in 2.0 mi SW 4.6 mph - N/A   Clear
4:15 AM 50.0 °F - 50.0 °F 100% 29.95 in 4.0 mi NW 12.7 mph 18.4 mph N/A   Clear
4:35 AM 46.4 °F 38.1 °F 35.6 °F 66% 29.98 in 10.0 mi NNW 24.2 mph 33.4 mph N/A   Clear
4:55 AM 42.8 °F 32.9 °F 33.8 °F 70% 30.01 in 10.0 mi North 26.5 mph 36.8 mph N/A   Clear
5:15 AM 39.2 °F 28.5 °F 30.2 °F 70% 30.04 in 10.0 mi North 24.2 mph 33.4 mph N/A   Clear
5:35 AM 37.4 °F 26.9 °F 28.4 °F 70% 30.06 in 10.0 mi North 20.7 mph 29.9 mph N/A   Clear
6:55 AM 35.6 °F 26.6 °F 23.0 °F 60% 30.15 in 10.0 mi NNW 13.8 mph 23.0 mph N/A   Clear
7:55 AM 32.0 °F 20.1 °F 19.4 °F 60% 30.21 in 10.0 mi North 19.6 mph 29.9 mph N/A   Clear
8:55 AM 33.8 °F 24.3 °F 21.2 °F 60% 30.26 in 10.0 mi North 13.8 mph 19.6 mph N/A   Clear
10:55 AM 35.6 °F 25.9 °F 19.4 °F 52% 30.32 in 10.0 mi North 16.1 mph 20.7 mph N/A   Clear
11:55 AM 37.4 °F 27.5 °F 19.4 °F 48% 30.30 in 10.0 mi North 18.4 mph - N/A   Clear
1:55 PM 42.8 °F 35.4 °F 19.4 °F 39% 30.27 in 10.0 mi North 15.0 mph 23.0 mph N/A   Clear
2:50 PM 44.6 °F 38.4 °F 19.4 °F 37% 30.27 in 10.0 mi NNE 12.7 mph - N/A   Clear
4:55 PM 42.8 °F 38.0 °F 17.6 °F 36% 30.30 in 10.0 mi North 8.1 mph - N/A   Clear
6:55 PM 35.6 °F 30.7 °F 15.8 °F 44% 30.35 in 10.0 mi North 5.8 mph - N/A   Clear
7:55 PM 35.6 °F 28.6 °F 15.8 °F 44% 30.35 in 10.0 mi NNE 9.2 mph - N/A   Clear
9:15 PM 32.0 °F 25.6 °F 17.6 °F 55% 30.38 in 10.0 mi North 6.9 mph - N/A   Clear
9:35 PM 32.0 °F 27.5 °F 17.6 °F 55% 30.39 in 10.0 mi North 4.6 mph - N/A   Clear
9:55 PM 32.0 °F 26.4 °F 17.6 °F 55% 30.38 in 10.0 mi North 5.8 mph - N/A   Clear
10:15 PM 32.0 °F 25.6 °F 17.6 °F 55% 30.38 in 10.0 mi North 6.9 mph - N/A   Clear
10:35 PM 32.0 °F 27.5 °F 17.6 °F 55% 30.37 in 10.0 mi North 4.6 mph - N/A   Clear
10:55 PM 32.0 °F 27.5 °F 17.6 °F 55% 30.37 in 10.0 mi North 4.6 mph - N/A   Clear
11:15 PM 32.0 °F 26.4 °F 17.6 °F 55% 30.38 in 10.0 mi NNE 5.8 mph - N/A   Clear
11:35 PM 30.2 °F 24.3 °F 17.6 °F 60% 30.38 in 10.0 mi NNE 5.8 mph - N/A   Clear